Muskegon, MI

11:21 PM EDT on October 20, 2019 (GMT -0400)
Muskegon County

Weather History for KMKG - August, 2019

Change the Weather History Date:

Saturday, August 17, 2019

  Actual Average Record
Temperature  
Mean Temperature 72 °F 70 °F  
Max Temperature 82 °F 79 °F 93 °F (1988)
Min Temperature 62 °F 61 °F 44 °F (1954)
Degree Days  
Heating Degree Days 0 0  
Month to date heating degree days 0 0  
Since 1 June heating degree days 58 77  
Since 1 July heating degree days 1 11  
Cooling Degree Days 7 6  
Month to date cooling degree days 111 102  
Year to date cooling degree days 482 438  
Since 1 June cooling degree days 479 409  
Growing Degree Days 22 (Base 50)    
Moisture  
Dew Point 62 °F    
Average Humidity 70    
Maximum Humidity 93    
Minimum Humidity 46    
Precipitation  
Precipitation 0.00 in 0.11 in 1.79 in (1914)
Month to date precipitation 0.99 1.84  
Year to date precipitation 25.96 19.03  
Snow  
Snow 0.00 in 0.00 in - ()
Month to date snowfall 0.0 0.0  
Since 1 June snowfall 0.0 0.0  
Since 1 July snowfall 0.0 0.0  
Snow Depth 0.00 in    
Sea Level Pressure  
Sea Level Pressure 29.89 in    
Wind  
Wind Speed 5 mph (WSW)    
Max Wind Speed 13 mph    
Max Gust Speed 17 mph    
Visibility 10 miles    
Events Fog    
T = Trace of Precipitation, MM = Missing Value Source: NWS Daily Summary

Daily Weather History Graph

Daily Weather History Graph

Search for Another Location

Airport or City:

Astronomy

Aug. 17, 2019 Rise Set
Actual Time 6:52 AM EDT 8:44 PM EDT
Civil Twilight 6:21 AM EDT 9:15 PM EDT
Nautical Twilight 5:44 AM EDT 9:52 PM EDT
Astronomical Twilight 5:03 AM EDT 10:32 PM EDT
Moon 10:09 PM EDT (8/17) 8:42 AM EDT (8/17)
Length of Visible Light 14h 53m
Length of Day
13h 52m
Waning Gibbous, 96% of the Moon is Illuminated
Aug 17
Waning Gibbous
Aug 23
Last Quarter
Aug 30
New
Sep 5
First Quarter
Sep 14
Full

Hourly Weather History & Observations

Time (EDT) Temp. Heat Index Dew Point Humidity Pressure Visibility Wind Dir Wind Speed Gust Speed Precip Events Conditions
12:55 AM 73.0 °F - 66.0 °F 79% 29.86 in 10.0 mi WNW 6.9 mph - N/A   Partly Cloudy
1:55 AM 71.1 °F - 64.9 °F 81% 29.87 in 10.0 mi West 3.5 mph - N/A   Partly Cloudy
2:55 AM 66.0 °F - 63.0 °F 90% 29.87 in 10.0 mi WSW 3.5 mph - N/A   Clear
3:55 AM 64.0 °F - 61.0 °F 90% 29.86 in 3.0 mi SW 4.6 mph - N/A   Clear
4:55 AM 64.0 °F - 61.0 °F 90% 29.86 in 10.0 mi WSW 5.8 mph - N/A   Clear
5:55 AM 64.0 °F - 61.0 °F 90% 29.84 in 6.0 mi Calm Calm - N/A   Partly Cloudy
6:55 AM 63.0 °F - 60.1 °F 90% 29.88 in 9.0 mi Variable 3.5 mph - N/A Fog Shallow Fog
7:55 AM 71.1 °F - 64.0 °F 78% 29.90 in 10.0 mi WSW 6.9 mph - N/A   Scattered Clouds
8:55 AM 73.9 °F - 64.9 °F 73% 29.92 in 10.0 mi West 8.1 mph - N/A   Scattered Clouds
9:55 AM 75.0 °F - 64.9 °F 71% 29.91 in 10.0 mi West 9.2 mph - N/A   Mostly Cloudy
10:55 AM 77.0 °F - 66.0 °F 69% 29.94 in 10.0 mi WSW 8.1 mph - N/A   Mostly Cloudy
11:55 AM 77.0 °F - 64.9 °F 66% 29.93 in 10.0 mi West 8.1 mph - N/A   Mostly Cloudy
12:55 PM 78.1 °F - 62.1 °F 58% 29.92 in 10.0 mi WSW 5.8 mph - N/A   Mostly Cloudy
1:55 PM 80.1 °F 81.1 °F 61.0 °F 52% 29.92 in 10.0 mi SSW 8.1 mph - N/A   Mostly Cloudy
2:55 PM 81.0 °F 81.6 °F 60.1 °F 49% 29.91 in 10.0 mi WSW 8.1 mph - N/A   Mostly Cloudy
3:55 PM 82.0 °F 82.1 °F 59.0 °F 45% 29.88 in 10.0 mi Variable 6.9 mph - N/A   Mostly Cloudy
4:55 PM 82.0 °F 82.1 °F 59.0 °F 45% 29.87 in 10.0 mi NW 4.6 mph - N/A   Mostly Cloudy
5:55 PM 79.0 °F - 60.1 °F 52% 29.90 in 10.0 mi WSW 10.4 mph - N/A   Mostly Cloudy
6:55 PM 77.0 °F - 61.0 °F 58% 29.88 in 10.0 mi West 3.5 mph - N/A   Overcast
7:55 PM 75.9 °F - 61.0 °F 60% 29.87 in 10.0 mi Calm Calm - N/A   Overcast
8:55 PM 75.9 °F - 62.1 °F 62% 29.87 in 10.0 mi Calm Calm - N/A   Mostly Cloudy
9:55 PM 73.9 °F - 62.1 °F 66% 29.88 in 10.0 mi East 3.5 mph - N/A   Mostly Cloudy
10:35 PM 73.9 °F - 62.1 °F 66% 29.89 in 10.0 mi Calm Calm - N/A   Overcast
10:55 PM 73.9 °F - 62.1 °F 66% 29.88 in 10.0 mi Calm Calm - N/A   Overcast
11:55 PM 73.0 °F - 63.0 °F 71% 29.89 in 10.0 mi SE 4.6 mph - N/A   Overcast